Epoch 2001 Feb. 20.0 TT = JDT 2451960.5 T 2001 Feb. 12.27294 TT MPC q 2.1519939 (2000.0) P Q n 0.12904653 Peri. 151.42308 -0.87779619 -0.47903427 a 3.8782740 Node 359.95400 +0.40415683 -0.74044715 e 0.4451156 Incl. 9.04202 +0.25715969 -0.47144903 P 7.64
m1 = 2.0 + 5 logΔ + 45 log r